Liberty, KS

11:33 AM CDT on September 26, 2016 (GMT -0500)
Coffeyville Municipal

Weather History for KCFV - July, 2013

Change the Weather History Date:

Tuesday, July 16, 2013

  Actual Average Record
Temperature  
Mean Temperature 80 °F -  
Max Temperature 93 °F 89 °F 102 °F (2000)
Min Temperature 69 °F 68 °F 55 °F (2014)
Cooling Degree Days 15    
Growing Degree Days 30 (Base 50)    
Moisture  
Dew Point 68 °F    
Average Humidity 67    
Maximum Humidity 93    
Minimum Humidity 42    
Precipitation  
Precipitation 0.03 in - - ()
Sea Level Pressure  
Sea Level Pressure 30.20 in    
Wind  
Wind Speed 3 mph (SSE)    
Max Wind Speed 9 mph    
Max Gust Speed -    
Visibility 10 miles    
Events Thunderstorm    
Averages and records for this station are not official NWS values.
T = Trace of Precipitation, MM = Missing Value Source: NWS Daily Summary

Daily Weather History Graph

Daily Weather History Graph

Search for Another Location

Airport or City:

Trip Planner

Search our weather history database for the weather conditions in past years. The results will help you decide how hot, cold, wet, or windy it might be!

Date:

Astronomy

Jul. 16, 2013 Rise Set
Actual Time 6:15 AM CDT 8:41 PM CDT
Civil Twilight 5:45 AM CDT 9:11 PM CDT
Nautical Twilight 5:08 AM CDT 9:48 PM CDT
Astronomical Twilight 4:27 AM CDT 10:28 PM CDT
Moon 2:27 PM CDT (7/16) 12:41 AM CDT (7/16)
Length of Visible Light 15h 26m
Length of Day
14h 26m
First Quarter, 56% of the Moon is Illuminated
Jul 16
First Quarter
Jul 22
Full
Jul 29
Last Quarter
Aug 6
New
Aug 14
First Quarter

Hourly Weather History & Observations

Time (CDT) Temp. Heat Index Dew Point Humidity Pressure Visibility Wind Dir Wind Speed Gust Speed Precip Events Conditions
12:52 AM 73.0 °F - 64.9 °F 76% 30.17 in 10.0 mi Calm Calm - N/A   Mostly Cloudy
1:52 AM 72.0 °F - 64.9 °F 78% 30.17 in 10.0 mi Calm Calm - N/A   Mostly Cloudy
2:52 AM 72.0 °F - 66.0 °F 81% 30.16 in 10.0 mi NE 3.5 mph - N/A   Overcast
3:52 AM 71.1 °F - 68.0 °F 90% 30.17 in 10.0 mi Calm Calm - 0.03 in   Mostly Cloudy
4:52 AM 70.0 °F - 68.0 °F 93% 30.17 in 10.0 mi NE 5.8 mph - N/A   Mostly Cloudy
5:52 AM 69.1 °F - 66.9 °F 93% 30.19 in 9.0 mi Calm Calm - N/A   Mostly Cloudy
6:52 AM 70.0 °F - 68.0 °F 93% 30.19 in 8.0 mi Calm Calm - N/A   Overcast
7:52 AM 73.0 °F - 69.1 °F 87% 30.21 in 10.0 mi NE 3.5 mph - N/A   Mostly Cloudy
8:52 AM 77.0 °F - 71.1 °F 82% 30.23 in 10.0 mi East 3.5 mph - N/A   Overcast
9:52 AM 81.0 °F 84.9 °F 71.1 °F 72% 30.24 in 10.0 mi South 3.5 mph - N/A   Clear
10:52 AM 84.0 °F 87.0 °F 68.0 °F 58% 30.24 in 10.0 mi Calm Calm - N/A   Clear
11:52 AM 88.0 °F 90.3 °F 66.0 °F 48% 30.23 in 10.0 mi Variable 3.5 mph - N/A   Clear
12:52 PM 91.0 °F 93.8 °F 66.0 °F 44% 30.22 in 10.0 mi ESE 9.2 mph - N/A   Partly Cloudy
1:52 PM 91.0 °F 93.8 °F 66.0 °F 44% 30.20 in 10.0 mi South 8.1 mph - N/A   Partly Cloudy
2:52 PM 91.0 °F 93.0 °F 64.9 °F 42% 30.17 in 10.0 mi East 3.5 mph - N/A   Mostly Cloudy
4:05 PM 89.6 °F 93.4 °F 68.0 °F 49% 30.19 in 10.0 mi West 3.5 mph - N/A Thunderstorm Mostly Cloudy
4:34 PM 91.4 °F 95.4 °F 68.0 °F 46% 30.18 in 10.0 mi NW 9.2 mph - N/A   Clear
4:52 PM 91.0 °F 94.3 °F 66.9 °F 45% 30.16 in 10.0 mi WNW 6.9 mph - N/A   Partly Cloudy
5:52 PM 89.1 °F 93.7 °F 69.1 °F 52% 30.18 in 10.0 mi West 4.6 mph - N/A Thunderstorm Mostly Cloudy
6:34 PM 87.8 °F 91.4 °F 68.0 °F 52% 30.21 in 10.0 mi SE 8.1 mph - N/A   Clear
6:52 PM 86.0 °F 89.4 °F 68.0 °F 55% 30.19 in 10.0 mi SSE 6.9 mph - N/A   Clear
7:52 PM 82.9 °F 86.5 °F 69.1 °F 63% 30.19 in 10.0 mi South 9.2 mph - N/A   Clear
8:52 PM 81.0 °F 84.1 °F 69.1 °F 67% 30.19 in 10.0 mi Calm Calm - N/A   Clear
9:52 PM 79.0 °F - 70.0 °F 74% 30.23 in 10.0 mi Calm Calm - N/A   Clear
10:52 PM 77.0 °F - 70.0 °F 79% 30.24 in 10.0 mi SSW 4.6 mph - N/A   Clear
11:52 PM 78.1 °F - 70.0 °F 76% 30.25 in 10.0 mi Calm Calm - N/A   Clear